RH
66 70 88 91 83 62 58 63 76 69 76 85 84 82 80 84 86 80 80 76 74 80 85 87 84 78 77 78 86 92 92 94 96 93 98 93 79 87 85 81 74 81 87 95
69 65 63 69 61 63 66 67 74 75 85 83 83 85 86 89 84 77 72 65 59 60 58 59 62 65 65 65 60 57 63 73 76 80 74 74 77 77 71 67 70 66 69 75
64 61 60 62 56 63 65 63 67 81 84 85 86 88 90 85 77 72 65 55 45 40 42 42 39 42 44 46 48 51 50 45 46 48 48 56 52 49 47 48 50 51 52 49
74 76 80 60 61 61 63 64 71 81 85 84 87 87 83 80 73 67 56 44 33 28 31 32 36 35 33 32 34 33 32 32 36 36 35 35 34 35 34 33 32 33 33 33
83 79 69 70 66 70 69 67 71 76 81 86 88 86 83 76 69 58 46 35 31 30 30 29 28 29 27 26 27 22 26 26 24 20 18 20 23 23 23 22 20 18 17 15
74 78 82 68 64 66 71 73 66 70 78 83 87 90 83 72 64 52 40 33 34 33 31 27 21 19 18 17 15 17 16 16 15 13 13 11 11 9 8 8 8 10 10 10
59 66 72 61 62 67 77 70 70 72 78 82 88 89 79 68 59 49 38 38 35 30 22 19 17 16 15 16 15 16 15 16 16 14 12 11 10 9 8 8 8 8 7 7
57 63 75 61 66 76 75 72 75 78 81 85 87 85 75 68 57 49 44 42 35 24 18 15 14 13 14 15 16 15 16 16 18 19 18 16 14 13 11 10 10 9 9 9
67 70 72 72 66 60 60 65 71 80 84 88 89 85 75 67 56 51 45 40 32 21 16 13 11 11 13 17 17 16 16 17 17 18 17 16 15 14 13 12 12 12 12 11
53 59 61 59 53 53 56 65 74 82 91 92 90 82 75 67 60 53 46 37 28 19 15 12 12 13 13 15 15 14 15 16 16 17 19 21 23 21 19 18 17 16 16 17
54 47 46 50 52 54 59 68 82 87 87 87 85 80 72 66 60 55 45 34 23 17 14 14 14 14 13 12 13 13 14 15 16 16 18 21 24 25 25 25 26 26 24 23
49 39 38 42 49 55 62 68 84 88 90 86 82 79 74 66 60 50 40 29 19 16 17 15 15 14 13 14 15 17 18 20 23 24 22 23 24 25 27 27 28 28 26 24
35 34 38 42 50 57 65 72 80 90 91 89 89 84 77 67 58 51 42 29 17 18 17 16 15 16 16 17 19 21 22 22 23 23 23 23 25 28 30 29 29 28 28 24
30 33 41 42 48 56 65 69 75 81 85 87 81 76 66 57 50 42 33 21 18 18 16 18 18 20 21 21 22 22 22 22 23 27 30 32 33 32 32 33 31 28 27 25
35 36 39 44 49 53 56 60 68 73 76 75 75 68 60 53 46 35 23 19 20 17 18 20 22 24 24 23 24 24 25 24 25 30 34 34 35 36 36 36 33 30 28 26
36 37 41 43 47 52 57 61 67 76 78 75 69 60 52 45 32 24 20 22 20 20 22 23 26 25 25 24 24 24 26 27 28 31 36 38 38 37 38 36 32 31 30 29
37 39 42 46 50 54 59 63 71 73 73 72 63 52 38 30 27 23 24 23 23 24 27 27 27 27 27 26 25 26 29 30 28 35 42 42 42 42 40 37 33 32 31 29
37 39 41 46 51 55 61 63 66 68 71 70 62 52 43 39 34 29 28 28 28 27 28 30 30 30 29 27 26 28 32 30 31 41 45 47 47 44 40 36 35 33 31 29
41 43 47 53 58 59 63 65 71 74 72 63 43 38 40 38 31 29 28 27 28 28 33 33 33 31 29 28 28 33 33 33 39 47 51 51 48 42 39 37 34 32 32 33
49 52 56 55 58 61 67 70 75 76 71 49 42 38 34 31 34 30 28 27 27 28 30 33 31 30 28 29 35 37 34 39 49 54 55 51 44 42 39 36 35 36 38 39
54 58 60 57 59 61 67 72 76 75 72 54 47 44 36 31 29 29 28 24 25 32 35 31 31 29 31 39 44 40 38 47 57 59 54 48 45 42 40 40 41 42 42 41
53 59 65 62 58 61 66 73 78 78 75 66 56 53 47 43 39 32 28 30 34 35 37 35 30 34 45 50 47 45 51 59 62 56 51 49 45 42 43 43 43 43 42 43
52 55 62 72 67 64 66 68 71 76 78 74 65 58 52 48 45 42 36 37 39 39 36 35 42 50 52 50 50 60 65 63 57 53 52 48 46 46 44 43 43 44 45 50
58 60 63 70 76 78 73 70 70 70 72 74 70 63 56 52 46 41 34 34 36 38 42 52 56 57 54 58 69 73 67 60 57 55 51 50 48 46 45 44 43 46 48 51
57 60 64 69 69 70 75 79 82 78 74 69 65 62 57 49 37 37 38 40 44 54 63 67 64 61 68 76 76 72 66 61 56 51 49 47 44 43 43 44 46 48 51 54
54 57 59 64 69 74 77 77 73 68 66 67 61 49 39 36 38 44 51 62 72 74 73 65 70 81 81 76 70 65 60 54 49 46 42 40 38 38 40 42 44 47 50 54
54 56 57 60 63 68 70 71 77 82 85 82 77 74 72 73 77 81 83 81 79 73 71 80 83 79 71 63 58 52 46 42 39 36 33 33 34 37 38 40 43 47 50 52